Location: The D'Auria's Ocala Star Observatory
(29.0276°N, 82.1742°W)
Time: 17:17:51
(UTC-04:00)

Daily predictions for brighter satellites

Satellite Brightness Start Highest point End
(mag) Time Altitude Azimuth Time Altitude Azimuth Time Altitude Azimuth
Cosmos 1655 Rocket 4.3 20:46:57 10° SSE 20:52:52 48° E 20:58:46 10° NNE
Cosmos 1378 3.5 20:52:24 10° SSE 20:55:57 43° E 20:59:31 10° NNE
H-2A R/B 4.1 20:55:14 10° E 20:57:39 14° ENE 21:00:05 10° NE
CZ-4 DEB 3.9 20:57:16 10° SE 21:00:02 27° ENE 21:02:47 10° NNE
ERS-1 Rocket 4.1 20:59:50 10° SE 21:03:58 27° ENE 21:08:08 10° NNE
GPS 2-12 Rocket1 4.5 21:03:06 10° SW 21:06:27 21° S 21:09:49 10° ESE
Delta 142 3.9 21:03:23 10° W 21:07:53 71° S 21:13:33 10° ESE
Cosmos 841 Rocket 4.2 21:03:38 10° NNW 21:08:47 57° WSW 21:13:54 10° S
ALOS 2.3 21:05:59 10° SSE 21:10:38 73° ENE 21:15:17 10° N
SWIFT 3.8 21:08:15 10° WSW 21:11:36 23° S 21:14:41 11° SE
Cosmos 2228 Rocket 4.2 21:08:22 10° NNE 21:12:13 28° E 21:15:52 11° SE
Cosmos 1743 Rocket 4.1 21:09:58 10° SSE 21:14:09 40° E 21:18:20 10° NNE
Resurs 01 Rocket 3.8 21:11:10 10° SSW 21:14:49 25° W 21:18:29 10° NW
IUS-26 SRM-1 4.4 21:14:30 10° SSW 21:16:07 12° S 21:17:12 10° SSE
ASTRO E2 3.0 21:12:26 10° W 21:16:23 56° SSW 21:19:44 14° ESE
Cosmos 1500 Rocket 4.4 21:17:10 10° SSE 21:20:59 31° E 21:24:50 10° NNE
USA 186 1.0 21:19:12 10° S 21:21:32 79° W 21:23:54 10° NNW
Cosmos 2221 3.0 21:23:24 10° NNW 21:27:38 62° W 21:31:51 10° S
deb Chang Zheng 4 3.6 21:25:20 10° NNE 21:29:36 58° ESE 21:33:51 10° S
XTE 4.3 21:27:30 10° WSW 21:30:09 26° S 21:31:18 20° SE
BREEZE M DEB (TANK) 2.5 21:28:20 10° NNW 21:30:11 34° NE 21:32:06 16° E
Tiangong 1 2.8 21:29:05 10° S 21:30:26 16° SSE 21:30:26 16° SSE
Cosmos 1441 Rocket 3.5 21:28:19 10° SSE 21:31:58 45° E 21:35:35 10° NNE
CZ-2C R/B 1.6 21:36:41 20° NE 21:36:41 20° NE 21:37:40 10° NNE
Delta 2 Rocket 3.2 21:33:09 10° WSW 21:36:46 65° NNW 21:40:08 10° ENE
SJ-11-01 4.4 21:33:19 15° SSE 21:37:09 57° ENE 21:41:47 10° N
ATLAS CENTAUR R/B 1.8 21:34:06 10° NNW 21:38:24 50° ENE 21:40:43 23° SE
Cosmos 1428 Rocket 4.5 21:34:19 10° S 21:40:34 82° E 21:46:52 10° N
Cosmos 2322 Rocket 2.5 21:37:29 10° N 21:42:54 48° ENE 21:46:21 22° SE
Cosmos 1939 Rocket 3.0 21:48:28 26° SE 21:50:27 53° ENE 21:54:17 10° N
AVUM R/B 3.1 21:52:34 39° NE 21:52:34 39° NE 21:54:12 10° NNE
SL-16 R/B 2.4 21:46:39 10° N 21:52:13 55° ENE 21:55:22 25° SE
In-Cosmos 22 4.4 21:47:17 10° SSW 21:53:01 76° W 21:58:48 10° N
Cosmos 1980 Rocket 3.1 21:47:44 10° NW 21:53:07 45° WSW 21:58:28 10° S
Cosmos 2360 Rocket 3.8 21:49:35 10° NNE 21:53:37 20° ENE 21:55:40 16° E
Cosmos 2266 Rocket 4.1 21:48:39 12° SSE 21:54:18 56° E 22:00:25 10° NNE
Cosmos 1515 Rocket 3.8 21:50:43 10° N 21:55:02 51° E 21:56:55 30° SE
Cosmos 1908 4.2 21:53:37 10° NNE 21:57:03 29° E 21:57:31 29° E
CZ-4B R/B 4.1 21:52:53 10° NNE 21:57:43 37° E 21:59:35 28° SE
H-2A R/B 0.8 21:54:42 10° WSW 21:57:30 40° SSW 21:57:30 40° SSW
USA 229 DEB 4.1 21:53:33 10° SW 22:00:25 68° WNW 22:07:22 10° NNE
USA 229 4.0 21:53:39 10° SW 22:00:31 69° WNW 22:07:28 10° NNE
Cosmos 1553 Rocket 4.0 21:55:54 10° N 22:02:18 88° E 22:07:18 17° S
Nimbus 7 Rocket 4.4 21:56:39 10° NNE 22:02:31 85° WNW 22:08:23 10° SSW
Meteor 2-20 Rocket 4.5 21:58:03 16° S 22:02:59 62° E 22:09:03 10° NNE
Cosmos 540 Rocket 4.4 22:00:21 10° NNW 22:05:15 45° W 22:09:30 13° S
Meteor 2-2 Rocket 4.4 22:02:44 10° N 22:08:41 63° E 22:11:41 30° SSE
Cosmos 2151 3.1 22:10:12 44° SE 22:11:04 52° E 22:15:09 10° NNE
Cosmos 1674 2.5 22:09:53 37° S 22:11:18 83° E 22:15:08 10° N
CZ-4 SHROUD 3.6 22:14:01 48° NE 22:14:01 48° NE 22:16:45 10° N
Cosmos 1833 4.4 22:09:15 10° SSW 22:14:58 76° WNW 22:20:40 10° NNE
Cosmos 1805 Rocket 4.4 22:17:06 33° E 22:17:06 33° E 22:20:51 10° NNE
Cosmos 1437 Rocket 2.5 22:16:21 10° N 22:20:09 79° E 22:20:37 66° SE
NOSS 3-1 (A) 3.7 22:20:06 37° ESE 22:20:21 37° ESE 22:25:53 10° NE
GPS 2-04 Rocket1 2.8 22:18:52 10° WNW 22:23:15 85° NNE 22:23:58 61° ESE
OAO 2 Rocket 3.4 22:18:51 10° SW 22:24:03 56° SSE 22:25:25 43° ESE
Cosmos 1151 Rocket 2.9 22:20:45 10° N 22:25:02 66° E 22:25:32 60° ESE
CZ-4 R/B 4.0 22:23:26 10° NNE 22:28:14 52° E 22:28:34 51° ESE
Nadezhda 2 Rocket 4.3 22:28:43 33° S 22:31:39 76° E 22:37:46 10° N
Envisat 3.4 22:30:37 31° SSW 22:32:55 59° WSW 22:37:56 10° NNW
H-2A R/B 3.3 22:31:02 23° SSW 22:33:15 39° W 22:37:30 10° NNW
Cosmos 1328 3.6 22:34:24 86° SSW 22:34:29 89° W 22:38:26 10° N
COSMOS 2428 4.2 22:31:42 10° NNE 22:35:57 21° ENE 22:36:34 21° ENE
Delta 128 4.0 22:33:32 10° W 22:37:30 46° SSW 22:37:30 46° SSW
Cosmos 1666 Rocket 4.4 22:39:51 37° NE 22:39:51 37° NE 22:43:01 10° NNE
Cosmos 2298 Rocket 4.1 22:41:52 54° E 22:41:52 54° E 22:46:55 10° NNE
Cosmos 2058 3.0 22:42:56 64° NNE 22:42:56 64° NNE 22:46:29 10° N
ATLAS 2AS CENTAUR R/B 4.3 22:45:16 19° E 22:45:16 19° E 22:48:27 10° ENE
YAOGAN 6 3.1 22:46:03 57° NNW 22:46:03 57° NNW 22:49:01 10° NNW
SPOT 5 3.3 22:45:55 43° SW 22:46:49 51° W 22:51:19 10° NNW
Cosmos 2112 Rocket 4.3 22:42:38 10° N 22:47:42 49° ENE 22:47:47 49° ENE
MetOp-A 4.5 22:54:51 46° SSW 22:56:07 59° W 23:01:24 10° NNW
ARGOS 3.0 22:55:49 71° ESE 22:56:13 74° ENE 23:01:36 10° N
Cosmos 405 4.3 22:52:52 10° NNW 22:55:47 39° WNW 22:55:47 39° WNW
Cosmos 2219 Rocket 4.1 22:53:28 10° NNE 22:56:34 15° ENE 22:56:41 15° ENE
H-2A R/B 2.9 23:00:41 37° ENE 23:00:41 37° ENE 23:05:10 10° N
Palapa 6 Rocket 4.5 22:52:47 10° WSW 23:00:31 55° S 23:01:23 53° SSE
Cosmos 2219 3.9 23:01:49 18° SW 23:06:00 51° WNW 23:11:36 10° N
SL-24 R/B - RUBIN 2 4.4 22:59:30 10° NNW 23:06:12 76° WSW 23:07:09 64° S
SL-08 RB Rocket 4.1 23:08:39 58° N 23:08:39 58° N 23:12:17 10° N
NOSS 3-1 (C) 3.7 23:03:43 14° SW 23:08:33 61° WNW 23:14:42 10° NNE
SPOT 1/Viking Rocket 3.8 23:12:06 59° WSW 23:12:17 60° W 23:17:22 10° NNW
Meteor 1-27 4.1 23:07:02 10° N 23:12:32 77° ENE 23:12:32 77° ENE
Cosmos 2322 3.8 23:15:14 10° NNW 23:20:54 66° WSW 23:20:54 66° WSW
Cosmos 2237 Rocket 4.1 23:20:01 10° NNE 23:23:15 17° NE 23:23:15 17° NE
Cosmos 1726 4.3 23:20:48 10° N 23:22:28 25° N 23:22:28 25° N
Cosmos 1680 Rocket 4.0 23:20:05 10° NNW 23:24:52 54° W 23:24:52 54° W
Cosmos 2322 Rocket 4.3 23:23:11 10° WNW 23:26:26 16° W 23:28:11 14° WSW
Cosmos 1898 Rocket 4.1 23:33:17 51° WNW 23:33:17 51° WNW 23:38:14 10° N
SL-16 R/B 4.4 23:32:55 10° WNW 23:35:44 14° W 23:37:16 13° WSW
Cosmos 2360 Rocket 3.0 23:32:26 10° NW 23:37:27 42° W 23:37:27 42° W
Terra 3.1 23:51:23 38° NNW 23:51:23 38° NNW 23:54:22 10° NNW
